Time,TemperatureF,DewpointF,PressureIn,WindDirection,WindDirectionDegrees,WindSpeedMPH,WindSpeedGustMPH,Humidity,HourlyPrecipIn,Conditions,Clouds,dailyrainin,SoftwareType,DateUTC
2013-04-09 00:03:00,44.0,-99.9,30.13,SSE,157,5.0,9.0,-999,-99.99,,,-99.99,,2013-04-09 04:03:00,
2013-04-09 00:13:00,44.0,-99.9,30.13,SSE,152,5.0,10.0,-999,-99.99,,,-99.99,,2013-04-09 04:13:00,
2013-04-09 00:23:00,45.0,-99.9,30.12,SSE,156,5.0,11.0,-999,-99.99,,,-99.99,,2013-04-09 04:23:00,
2013-04-09 00:33:00,45.0,-99.9,30.13,SSE,157,5.0,11.0,-999,-99.99,,,-99.99,,2013-04-09 04:33:00,
2013-04-09 00:43:00,45.0,-99.9,30.13,SSE,159,7.0,11.0,-999,-99.99,,,-99.99,,2013-04-09 04:43:00,
2013-04-09 00:53:00,45.0,-99.9,30.13,SSE,159,7.0,11.0,-999,-99.99,,,-99.99,,2013-04-09 04:53:00,
2013-04-09 01:03:00,45.0,-99.9,30.12,SSE,156,4.0,10.0,-999,-99.99,,,-99.99,,2013-04-09 05:03:00,
2013-04-09 01:13:00,45.0,-99.9,30.12,SSE,151,6.0,11.0,-999,-99.99,,,-99.99,,2013-04-09 05:13:00,
2013-04-09 01:22:00,45.0,-99.9,30.12,SSE,153,5.0,11.0,-999,-99.99,,,-99.99,,2013-04-09 05:22:00,
2013-04-09 01:33:00,45.0,-99.9,30.11,SSE,150,6.0,9.0,-999,-99.99,,,-99.99,,2013-04-09 05:33:00,
2013-04-09 01:43:00,45.0,-99.9,30.11,SSE,148,6.0,10.0,-999,-99.99,,,-99.99,,2013-04-09 05:43:00,
2013-04-09 01:52:00,46.0,-99.9,30.11,SSE,152,6.0,12.0,-999,-99.99,,,-99.99,,2013-04-09 05:52:00,
2013-04-09 02:02:00,46.0,-99.9,30.10,SSE,149,6.0,13.0,-999,-99.99,,,-99.99,,2013-04-09 06:02:00,
2013-04-09 02:12:00,46.0,-99.9,30.09,SE,144,6.0,11.0,-999,-99.99,,,-99.99,,2013-04-09 06:12:00,
2013-04-09 02:22:00,46.0,-99.9,30.09,SSE,152,7.0,12.0,-999,-99.99,,,-99.99,,2013-04-09 06:22:00,
2013-04-09 02:32:00,46.0,-99.9,30.08,SSE,159,8.0,15.0,-999,-99.99,,,-99.99,,2013-04-09 06:32:00,
2013-04-09 02:42:00,46.0,-99.9,30.08,SSE,150,7.0,12.0,-999,-99.99,,,-99.99,,2013-04-09 06:42:00,
2013-04-09 02:52:00,46.0,-99.9,30.07,SSE,157,7.0,15.0,-999,-99.99,,,-99.99,,2013-04-09 06:52:00,
2013-04-09 03:02:00,46.0,-99.9,30.07,SSE,152,8.0,14.0,-999,-99.99,,,-99.99,,2013-04-09 07:02:00,
2013-04-09 03:13:00,46.0,-99.9,30.06,SSE,148,10.0,13.0,-999,-99.99,,,-99.99,,2013-04-09 07:13:00,
2013-04-09 03:22:00,46.0,-99.9,30.06,SSE,159,8.0,15.0,-999,-99.99,,,-99.99,,2013-04-09 07:22:00,
2013-04-09 03:32:00,46.0,-99.9,30.06,SSE,148,8.0,13.0,-999,-99.99,,,-99.99,,2013-04-09 07:32:00,
2013-04-09 03:42:00,46.0,-99.9,30.06,SE,141,7.0,14.0,-999,-99.99,,,-99.99,,2013-04-09 07:42:00,
2013-04-09 03:53:00,46.0,-99.9,30.05,SE,145,5.0,11.0,-999,-99.99,,,-99.99,,2013-04-09 07:53:00,
2013-04-09 04:03:00,46.0,-99.9,30.06,SSE,154,8.0,13.0,-999,-99.99,,,-99.99,,2013-04-09 08:03:00,
2013-04-09 04:13:00,46.0,-99.9,30.06,SSE,150,8.0,14.0,-999,-99.99,,,-99.99,,2013-04-09 08:13:00,
2013-04-09 04:22:00,45.0,-99.9,30.05,SSE,158,6.0,13.0,-999,-99.99,,,-99.99,,2013-04-09 08:22:00,
2013-04-09 04:32:00,45.0,-99.9,30.04,SSE,157,5.0,10.0,-999,-99.99,,,-99.99,,2013-04-09 08:32:00,
2013-04-09 04:42:00,46.0,-99.9,30.04,SSE,152,8.0,11.0,-999,-99.99,,,-99.99,,2013-04-09 08:42:00,
2013-04-09 04:52:00,46.0,-99.9,30.02,SSE,159,7.0,12.0,-999,-99.99,,,-99.99,,2013-04-09 08:52:00,
2013-04-09 05:03:00,46.0,-99.9,30.02,SSE,160,6.0,13.0,-999,-99.99,,,-99.99,,2013-04-09 09:03:00,
2013-04-09 05:13:00,46.0,-99.9,30.01,SSE,163,9.0,13.0,-999,-99.99,,,-99.99,,2013-04-09 09:13:00,
2013-04-09 05:23:00,46.0,-99.9,30.02,South,169,8.0,13.0,-999,-99.99,,,-99.99,,2013-04-09 09:23:00,
2013-04-09 05:33:00,46.0,-99.9,30.02,SSE,165,6.0,11.0,-999,-99.99,,,-99.99,,2013-04-09 09:33:00,
2013-04-09 05:44:00,46.0,-99.9,30.01,SSE,164,8.0,14.0,-999,-99.99,,,-99.99,,2013-04-09 09:44:00,
2013-04-09 05:53:00,47.0,-99.9,30.01,South,170,8.0,15.0,-999,-99.99,,,-99.99,,2013-04-09 09:53:00,
2013-04-09 06:04:00,47.0,-99.9,30.00,SSE,165,9.0,14.0,-999,-99.99,,,-99.99,,2013-04-09 10:04:00,
2013-04-09 06:13:00,46.0,-99.9,29.99,SSE,162,9.0,15.0,-999,-99.99,,,-99.99,,2013-04-09 10:13:00,
2013-04-09 06:24:00,46.0,-99.9,29.99,South,170,11.0,18.0,-999,-99.99,,,-99.99,,2013-04-09 10:24:00,
2013-04-09 06:33:00,47.0,-99.9,29.99,South,170,9.0,17.0,-999,-99.99,,,-99.99,,2013-04-09 10:33:00,
2013-04-09 06:43:00,47.0,-99.9,29.99,South,171,11.0,16.0,-999,-99.99,,,-99.99,,2013-04-09 10:43:00,
2013-04-09 06:54:00,47.0,-99.9,29.98,SSE,167,9.0,15.0,-999,-99.99,,,-99.99,,2013-04-09 10:54:00,
2013-04-09 07:02:00,47.0,-99.9,29.98,South,172,9.0,17.0,-999,-99.99,,,-99.99,,2013-04-09 11:02:00,
2013-04-09 07:12:00,47.0,-99.9,29.98,South,175,8.0,19.0,-999,-99.99,,,-99.99,,2013-04-09 11:12:00,
2013-04-09 07:22:00,47.0,-99.9,29.98,South,180,9.0,17.0,-999,-99.99,,,-99.99,,2013-04-09 11:22:00,
2013-04-09 07:32:00,49.0,-99.9,29.98,South,189,8.0,15.0,-999,-99.99,,,-99.99,,2013-04-09 11:32:00,
2013-04-09 07:43:00,49.0,-99.9,29.98,South,184,11.0,18.0,-999,-99.99,,,-99.99,,2013-04-09 11:43:00,
2013-04-09 07:52:00,49.0,-99.9,29.97,South,181,11.0,20.0,-999,-99.99,,,-99.99,,2013-04-09 11:52:00,
2013-04-09 08:02:00,49.0,-99.9,29.98,South,181,10.0,17.0,-999,-99.99,,,-99.99,,2013-04-09 12:02:00,
2013-04-09 08:12:00,50.0,-99.9,29.97,South,180,9.0,15.0,-999,-99.99,,,-99.99,,2013-04-09 12:12:00,
2013-04-09 08:22:00,50.0,-99.9,29.96,South,179,10.0,17.0,-999,-99.99,,,-99.99,,2013-04-09 12:22:00,
2013-04-09 08:33:00,50.0,-99.9,29.96,SSW,196,9.0,14.0,-999,-99.99,,,-99.99,,2013-04-09 12:33:00,
2013-04-09 08:43:00,50.0,-99.9,29.95,South,191,10.0,15.0,-999,-99.99,,,-99.99,,2013-04-09 12:43:00,
2013-04-09 08:53:00,50.0,-99.9,29.95,SSW,192,10.0,15.0,-999,-99.99,,,-99.99,,2013-04-09 12:53:00,
2013-04-09 09:03:00,50.0,-99.9,29.95,SSW,204,9.0,14.0,-999,-99.99,,,-99.99,,2013-04-09 13:03:00,
2013-04-09 09:13:00,50.0,-99.9,29.94,SSW,198,11.0,14.0,-999,-99.99,,,-99.99,,2013-04-09 13:13:00,
2013-04-09 09:23:00,49.0,-99.9,29.92,SSW,197,8.0,15.0,-999,-99.99,,,-99.99,,2013-04-09 13:23:00,
2013-04-09 09:33:00,49.0,-99.9,29.93,SW,220,11.0,16.0,-999,-99.99,,,-99.99,,2013-04-09 13:33:00,
2013-04-09 09:43:00,50.0,-99.9,29.93,SW,228,11.0,19.0,-999,-99.99,,,-99.99,,2013-04-09 13:43:00,
2013-04-09 09:54:00,51.0,-99.9,29.93,SW,233,13.0,21.0,-999,-99.99,,,-99.99,,2013-04-09 13:54:00,
2013-04-09 10:03:00,51.0,-99.9,29.92,SW,221,14.0,21.0,-999,-99.99,,,-99.99,,2013-04-09 14:03:00,
2013-04-09 10:12:00,52.0,-99.9,29.92,SW,221,14.0,23.0,-999,-99.99,,,-99.99,,2013-04-09 14:12:00,
2013-04-09 10:22:00,51.0,-99.9,29.92,SW,232,11.0,24.0,-999,-99.99,,,-99.99,,2013-04-09 14:22:00,
2013-04-09 10:33:00,52.0,-99.9,29.92,SW,224,13.0,24.0,-999,-99.99,,,-99.99,,2013-04-09 14:33:00,
2013-04-09 10:43:00,52.0,-99.9,29.91,SW,232,17.0,24.0,-999,-99.99,,,-99.99,,2013-04-09 14:43:00,
2013-04-09 10:53:00,53.0,-99.9,29.91,SW,227,15.0,30.0,-999,-99.99,,,-99.99,,2013-04-09 14:53:00,
2013-04-09 11:02:00,53.0,-99.9,29.91,SW,219,15.0,23.0,-999,-99.99,,,-99.99,,2013-04-09 15:02:00,
2013-04-09 11:13:00,53.0,-99.9,29.91,SW,227,12.0,25.0,-999,-99.99,,,-99.99,,2013-04-09 15:13:00,
2013-04-09 11:23:00,53.0,-99.9,29.91,SW,224,13.0,24.0,-999,-99.99,,,-99.99,,2013-04-09 15:23:00,
2013-04-09 11:35:00,52.0,-99.9,29.91,SW,234,12.0,26.0,-999,-99.99,,,-99.99,,2013-04-09 15:35:00,
2013-04-09 11:44:00,53.0,-99.9,29.91,SW,233,12.0,21.0,-999,-99.99,,,-99.99,,2013-04-09 15:44:00,
2013-04-09 11:54:00,52.0,-99.9,29.91,WSW,237,13.0,25.0,-999,-99.99,,,-99.99,,2013-04-09 15:54:00,
2013-04-09 12:04:00,53.0,-99.9,29.91,SW,234,12.0,19.0,-999,-99.99,,,-99.99,,2013-04-09 16:04:00,
2013-04-09 12:13:00,53.0,-99.9,29.90,WSW,237,15.0,20.0,-999,-99.99,,,-99.99,,2013-04-09 16:13:00,
2013-04-09 12:24:00,53.0,-99.9,29.90,WSW,248,12.0,22.0,-999,-99.99,,,-99.99,,2013-04-09 16:24:00,
2013-04-09 12:34:00,53.0,-99.9,29.90,WSW,245,15.0,23.0,-999,-99.99,,,-99.99,,2013-04-09 16:34:00,
2013-04-09 12:43:00,53.0,-99.9,29.90,WSW,240,13.0,27.0,-999,-99.99,,,-99.99,,2013-04-09 16:43:00,
2013-04-09 12:54:00,53.0,-99.9,29.89,WSW,244,13.0,20.0,-999,-99.99,,,-99.99,,2013-04-09 16:54:00,
2013-04-09 13:03:00,54.0,-99.9,29.89,SW,236,12.0,26.0,-999,-99.99,,,-99.99,,2013-04-09 17:03:00,
2013-04-09 13:13:00,55.0,-99.9,29.89,WSW,245,13.0,24.0,-999,-99.99,,,-99.99,,2013-04-09 17:13:00,
2013-04-09 13:23:00,55.0,-99.9,29.88,WSW,244,13.0,22.0,-999,-99.99,,,-99.99,,2013-04-09 17:23:00,
2013-04-09 13:33:00,55.0,-99.9,29.89,WSW,254,14.0,23.0,-999,-99.99,,,-99.99,,2013-04-09 17:33:00,
2013-04-09 13:43:00,56.0,-99.9,29.88,WSW,252,13.0,23.0,-999,-99.99,,,-99.99,,2013-04-09 17:43:00,
2013-04-09 13:55:00,56.0,-99.9,29.88,WSW,249,11.0,23.0,-999,-99.99,,,-99.99,,2013-04-09 17:55:00,
2013-04-09 14:03:00,57.0,-99.9,29.88,WSW,245,12.0,22.0,-999,-99.99,,,-99.99,,2013-04-09 18:03:00,
2013-04-09 14:13:00,56.0,-99.9,29.88,WSW,252,14.0,20.0,-999,-99.99,,,-99.99,,2013-04-09 18:13:00,
2013-04-09 14:23:00,55.0,-99.9,29.88,WSW,242,12.0,24.0,-999,-99.99,,,-99.99,,2013-04-09 18:23:00,
2013-04-09 14:33:00,55.0,-99.9,29.88,WSW,253,10.0,21.0,-999,-99.99,,,-99.99,,2013-04-09 18:33:00,
2013-04-09 14:43:00,56.0,-99.9,29.88,WSW,248,10.0,20.0,-999,-99.99,,,-99.99,,2013-04-09 18:43:00,
2013-04-09 14:53:00,56.0,-99.9,29.88,WSW,248,10.0,20.0,-999,-99.99,,,-99.99,,2013-04-09 18:53:00,
2013-04-09 15:03:00,55.0,-99.9,29.88,WSW,251,12.0,21.0,-999,-99.99,,,-99.99,,2013-04-09 19:03:00,
2013-04-09 15:12:00,55.0,-99.9,29.88,WSW,251,12.0,21.0,-999,-99.99,,,-99.99,,2013-04-09 19:12:00,
2013-04-09 15:23:00,55.0,-99.9,29.88,WSW,251,12.0,21.0,-999,-99.99,,,-99.99,,2013-04-09 19:23:00,
2013-04-09 15:33:00,55.0,-99.9,29.89,WSW,249,13.0,19.0,-999,-99.99,,,-99.99,,2013-04-09 19:33:00,
2013-04-09 15:53:00,56.0,-99.9,29.88,WSW,245,12.0,17.0,-999,-99.99,,,-99.99,,2013-04-09 19:53:00,
2013-04-09 16:03:00,58.0,-99.9,29.89,WSW,255,8.0,19.0,-999,-99.99,,,-99.99,,2013-04-09 20:03:00,
2013-04-09 16:12:00,58.0,-99.9,29.90,WSW,256,11.0,20.0,-999,-99.99,,,-99.99,,2013-04-09 20:12:00,
2013-04-09 16:23:00,55.0,-99.9,29.90,West,281,7.0,15.0,-999,-99.99,,,-99.99,,2013-04-09 20:23:00,
2013-04-09 16:35:00,53.0,-99.9,29.91,NNW,332,8.0,13.0,-999,-99.99,,,-99.99,,2013-04-09 20:35:00,
2013-04-09 16:42:00,55.0,-99.9,29.91,West,260,7.0,10.0,-999,-99.99,,,-99.99,,2013-04-09 20:42:00,
2013-04-09 16:44:00,55.0,-99.9,29.91,NNW,334,8.0,13.0,-999,-99.99,,,-99.99,,2013-04-09 20:44:00,
2013-04-09 16:53:00,55.0,-99.9,29.91,NNW,328,5.0,11.0,-999,-99.99,,,-99.99,,2013-04-09 20:53:00,
2013-04-09 17:03:00,54.0,-99.9,29.91,West,261,5.0,8.0,-999,-99.99,,,-99.99,,2013-04-09 21:03:00,
2013-04-09 17:14:00,54.0,-99.9,29.91,West,261,5.0,8.0,-999,-99.99,,,-99.99,,2013-04-09 21:14:00,
2013-04-09 17:23:00,54.0,-99.9,29.91,West,261,5.0,8.0,-999,-99.99,,,-99.99,,2013-04-09 21:23:00,
2013-04-09 17:33:00,55.0,-99.9,29.91,West,260,7.0,10.0,-999,-99.99,,,-99.99,,2013-04-09 21:33:00,
2013-04-09 17:53:00,60.0,-99.9,29.93,NW,309,3.0,7.0,-999,-99.99,,,-99.99,,2013-04-09 21:53:00,
2013-04-09 18:04:00,58.0,-99.9,29.93,NNW,330,6.0,9.0,-999,-99.99,,,-99.99,,2013-04-09 22:04:00,
2013-04-09 18:13:00,58.0,-99.9,29.93,North,3,6.0,8.0,-999,-99.99,,,-99.99,,2013-04-09 22:13:00,
2013-04-09 18:23:00,53.0,-99.9,29.94,NNE,13,9.0,13.0,-999,-99.99,,,-99.99,,2013-04-09 22:23:00,
2013-04-09 18:34:00,51.0,-99.9,29.95,NNE,25,6.0,13.0,-999,-99.99,,,-99.99,,2013-04-09 22:34:00,
2013-04-09 18:43:00,49.0,-99.9,29.96,ENE,62,10.0,14.0,-999,-99.99,,,-99.99,,2013-04-09 22:43:00,
2013-04-09 18:54:00,49.0,-99.9,29.96,ENE,73,9.0,12.0,-999,-99.99,,,-99.99,,2013-04-09 22:54:00,
2013-04-09 19:03:00,49.0,-99.9,29.96,ENE,68,8.0,11.0,-999,-99.99,,,-99.99,,2013-04-09 23:03:00,
2013-04-09 19:13:00,50.0,-99.9,29.97,ENE,72,9.0,10.0,-999,-99.99,,,-99.99,,2013-04-09 23:13:00,
2013-04-09 19:23:00,51.0,-99.9,29.98,ENE,71,5.0,10.0,-999,-99.99,,,-99.99,,2013-04-09 23:23:00,
2013-04-09 19:33:00,51.0,-99.9,29.98,ENE,74,9.0,14.0,-999,-99.99,,,-99.99,,2013-04-09 23:33:00,
2013-04-09 19:43:00,50.0,-99.9,29.99,East,86,6.0,9.0,-999,-99.99,,,-99.99,,2013-04-09 23:43:00,
2013-04-09 19:53:00,49.0,-99.9,30.00,East,94,7.0,9.0,-999,-99.99,,,-99.99,,2013-04-09 23:53:00,
2013-04-09 20:03:00,49.0,-99.9,30.00,East,94,7.0,9.0,-999,-99.99,,,-99.99,,2013-04-10 00:03:00,
2013-04-09 20:13:00,49.0,-99.9,30.00,East,94,7.0,9.0,-999,-99.99,,,-99.99,,2013-04-10 00:13:00,
2013-04-09 20:23:00,49.0,-99.9,30.00,East,96,6.0,8.0,-999,-99.99,,,-99.99,,2013-04-10 00:23:00,
2013-04-09 20:33:00,48.0,-99.9,30.00,East,81,6.0,9.0,-999,-99.99,,,-99.99,,2013-04-10 00:33:00,
2013-04-09 20:43:00,48.0,-99.9,30.01,ENE,77,4.0,8.0,-999,-99.99,,,-99.99,,2013-04-10 00:43:00,
2013-04-09 20:53:00,48.0,-99.9,30.02,East,86,5.0,6.0,-999,-99.99,,,-99.99,,2013-04-10 00:53:00,
2013-04-09 21:02:00,48.0,-99.9,30.02,ESE,114,4.0,5.0,-999,-99.99,,,-99.99,,2013-04-10 01:02:00,
2013-04-09 21:12:00,47.0,-99.9,30.04,SE,127,2.0,4.0,-999,-99.99,,,-99.99,,2013-04-10 01:12:00,
2013-04-09 21:23:00,47.0,-99.9,30.04,ESE,108,3.0,4.0,-999,-99.99,,,-99.99,,2013-04-10 01:23:00,
2013-04-09 21:33:00,47.0,-99.9,30.03,East,93,4.0,5.0,-999,-99.99,,,-99.99,,2013-04-10 01:33:00,
2013-04-09 21:43:00,47.0,-99.9,30.04,East,101,4.0,5.0,-999,-99.99,,,-99.99,,2013-04-10 01:43:00,
2013-04-09 21:53:00,46.0,-99.9,30.04,SE,124,4.0,7.0,-999,-99.99,,,-99.99,,2013-04-10 01:53:00,
2013-04-09 22:03:00,46.0,-99.9,30.04,ESE,116,3.0,7.0,-999,-99.99,,,-99.99,,2013-04-10 02:03:00,
2013-04-09 22:13:00,46.0,-99.9,30.04,ESE,117,4.0,5.0,-999,-99.99,,,-99.99,,2013-04-10 02:13:00,
2013-04-09 22:23:00,46.0,-99.9,30.04,ESE,118,4.0,5.0,-999,-99.99,,,-99.99,,2013-04-10 02:23:00,
2013-04-09 22:33:00,46.0,-99.9,30.05,SE,134,4.0,5.0,-999,-99.99,,,-99.99,,2013-04-10 02:33:00,
2013-04-09 22:43:00,46.0,-99.9,30.04,East,88,3.0,5.0,-999,-99.99,,,-99.99,,2013-04-10 02:43:00,
2013-04-09 22:53:00,46.0,-99.9,30.04,SE,126,4.0,5.0,-999,-99.99,,,-99.99,,2013-04-10 02:53:00,
2013-04-09 23:03:00,46.0,-99.9,30.05,ESE,119,3.0,6.0,-999,-99.99,,,-99.99,,2013-04-10 03:03:00,
2013-04-09 23:13:00,46.0,-99.9,30.05,ESE,102,4.0,6.0,-999,-99.99,,,-99.99,,2013-04-10 03:13:00,
2013-04-09 23:22:00,46.0,-99.9,30.04,ESE,117,4.0,6.0,-999,-99.99,,,-99.99,,2013-04-10 03:22:00,
2013-04-09 23:33:00,46.0,-99.9,30.04,ESE,113,4.0,6.0,-999,-99.99,,,-99.99,,2013-04-10 03:33:00,
2013-04-09 23:43:00,45.0,-99.9,30.04,ESE,112,5.0,6.0,-999,-99.99,,,-99.99,,2013-04-10 03:43:00,
2013-04-09 23:53:00,45.0,-99.9,30.04,ESE,117,4.0,6.0,-999,-99.99,,,-99.99,,2013-04-10 03:53:00,